Cheraw, SC

1:52 AM EDT on August 27, 2016 (GMT -0400)
Cheraw

Weather History for KCQW - June, 2013

Change the Weather History Date:

Thursday, June 20, 2013

  Actual Average (KFLO) Record (KFLO)
Temperature  
Mean Temperature 73 °F 79 °F  
Max Temperature 84 °F 89 °F 102 °F (2011)
Min Temperature 62 °F 69 °F 58 °F (1954)
Degree Days  
Heating Degree Days 0 0  
Month to date heating degree days 0  
Since 1 June heating degree days 0  
Since 1 July heating degree days 2523  
Cooling Degree Days 8 14  
Month to date cooling degree days 247  
Year to date cooling degree days 554  
Since 1 June cooling degree days 247  
Growing Degree Days 23 (Base 50)    
Moisture  
Dew Point 61 °F    
Average Humidity 71    
Maximum Humidity 100    
Minimum Humidity 40    
Precipitation  
Precipitation 0.00 in 0.15 in 2.85 in (1984)
Month to date precipitation 3.13  
Year to date precipitation 18.49  
Sea Level Pressure  
Sea Level Pressure 30.17 in    
Wind  
Wind Speed - (North)    
Max Wind Speed -    
Max Gust Speed -    
Visibility 9 miles    
Events      
T = Trace of Precipitation, MM = Missing Value Source: NWS Daily Summary

Daily Weather History Graph

Daily Weather History Graph

Search for Another Location

Airport or City:

Trip Planner

Search our weather history database for the weather conditions in past years. The results will help you decide how hot, cold, wet, or windy it might be!

Date:

Astronomy

Jun. 20, 2013 Rise Set
Actual Time 6:06 AM EDT 8:36 PM EDT
Civil Twilight 5:37 AM EDT 9:05 PM EDT
Nautical Twilight 5:00 AM EDT 9:42 PM EDT
Astronomical Twilight 4:20 AM EDT 10:22 PM EDT
Moon 5:40 PM EDT (6/20) 3:26 AM EDT (6/20)
Length of Visible Light 15h 28m
Length of Day
14h 29m
Waxing Gibbous, 89% of the Moon is Illuminated
Jun 20
Waxing Gibbous
Jun 23
Full
Jun 30
Last Quarter
Jul 8
New
Jul 15
First Quarter

Hourly Weather History & Observations

Time (EDT) Temp. Heat Index Dew Point Humidity Pressure Visibility Wind Dir Wind Speed Gust Speed Precip Events Conditions
12:15 AM 68.0 °F - 66.2 °F 94% 30.11 in 10.0 mi North - - N/A   Partly Cloudy
12:35 AM 68.0 °F - 66.2 °F 94% 30.11 in 10.0 mi North - - N/A   Partly Cloudy
12:55 AM 68.0 °F - 66.2 °F 94% 30.11 in 10.0 mi North - - N/A   Scattered Clouds
1:15 AM 66.2 °F - 66.2 °F 100% 30.12 in 10.0 mi North - - N/A   Scattered Clouds
1:35 AM 66.2 °F - 64.4 °F 94% 30.11 in 8.0 mi North - - N/A   Partly Cloudy
1:55 AM 66.2 °F - 64.4 °F 94% 30.11 in 10.0 mi North - - N/A   Clear
2:15 AM 66.2 °F - 64.4 °F 94% 30.11 in 9.0 mi North - - N/A   Scattered Clouds
2:35 AM 66.2 °F - 64.4 °F 94% 30.11 in 8.0 mi North - - N/A   Mostly Cloudy
2:55 AM 66.2 °F - 64.4 °F 94% 30.11 in 8.0 mi North - - N/A   Clear
3:15 AM 64.4 °F - 64.4 °F 100% 30.11 in 7.0 mi North - - N/A   Clear
3:35 AM 64.4 °F - 64.4 °F 100% 30.11 in 5.0 mi North - - N/A   Clear
3:55 AM 64.4 °F - 64.4 °F 100% 30.12 in 5.0 mi North - - N/A   Mostly Cloudy
4:15 AM 64.4 °F - 64.4 °F 100% 30.13 in 6.0 mi North - - N/A   Partly Cloudy
4:35 AM 64.4 °F - 64.4 °F 100% 30.13 in 5.0 mi North - - N/A   Clear
4:55 AM 64.4 °F - 64.4 °F 100% 30.13 in 7.0 mi North - - N/A   Clear
5:15 AM 64.4 °F - 64.4 °F 100% 30.14 in 7.0 mi North - - N/A   Clear
5:35 AM 62.6 °F - 62.6 °F 100% 30.14 in 7.0 mi North - - N/A   Clear
5:55 AM 64.4 °F - 62.6 °F 94% 30.14 in 9.0 mi North - - N/A   Clear
6:15 AM 62.6 °F - 62.6 °F 100% 30.15 in 7.0 mi North - - N/A   Clear
6:35 AM 62.6 °F - 62.6 °F 100% 30.16 in 5.0 mi North - - N/A   Clear
6:55 AM 64.4 °F - 62.6 °F 94% 30.17 in 5.0 mi North - - N/A   Clear
7:15 AM 64.4 °F - 64.4 °F 100% 30.18 in 7.0 mi North - - N/A   Clear
7:35 AM 66.2 °F - 64.4 °F 94% 30.18 in 9.0 mi North - - N/A   Clear
7:55 AM 66.2 °F - 64.4 °F 94% 30.19 in 9.0 mi North - - N/A   Clear
8:15 AM 68.0 °F - 64.4 °F 88% 30.20 in 10.0 mi North - - N/A   Clear
8:35 AM 68.0 °F - 64.4 °F 88% 30.20 in 10.0 mi North - - N/A   Clear
8:55 AM 69.8 °F - 64.4 °F 83% 30.21 in 10.0 mi North - - N/A   Clear
9:15 AM 71.6 °F - 62.6 °F 73% 30.21 in 10.0 mi North - - N/A   Clear
9:35 AM 73.4 °F - 62.6 °F 69% 30.21 in 10.0 mi North - - N/A   Clear
9:55 AM 73.4 °F - 62.6 °F 69% 30.21 in 10.0 mi North - - N/A   Clear
10:15 AM 75.2 °F - 62.6 °F 65% 30.21 in 10.0 mi North - - N/A   Clear
10:35 AM 75.2 °F - 62.6 °F 65% 30.21 in 10.0 mi North - - N/A   Clear
10:55 AM 77.0 °F - 59.0 °F 54% 30.21 in 10.0 mi North - - N/A   Clear
11:15 AM 77.0 °F - 59.0 °F 54% 30.21 in 10.0 mi North - - N/A   Clear
11:35 AM 77.0 °F - 59.0 °F 54% 30.22 in 10.0 mi North - - N/A   Clear
11:55 AM 78.8 °F - 57.2 °F 47% 30.21 in 10.0 mi North - - N/A   Clear
12:15 PM 80.6 °F 81.1 °F 59.0 °F 48% 30.20 in 10.0 mi North - - N/A   Clear
12:35 PM 80.6 °F 81.1 °F 59.0 °F 48% 30.20 in 10.0 mi North - - N/A   Clear
12:55 PM 80.6 °F 81.1 °F 59.0 °F 48% 30.20 in 10.0 mi North - - N/A   Clear
1:15 PM 80.6 °F 81.1 °F 59.0 °F 48% 30.20 in 10.0 mi North - - N/A   Clear
1:35 PM 82.4 °F 82.5 °F 59.0 °F 45% 30.20 in 10.0 mi North - - N/A   Clear
1:55 PM 82.4 °F 82.5 °F 59.0 °F 45% 30.20 in 10.0 mi North - - N/A   Clear
2:15 PM 82.4 °F 82.5 °F 59.0 °F 45% 30.19 in 10.0 mi North - - N/A   Clear
2:35 PM 82.4 °F 82.5 °F 59.0 °F 45% 30.19 in 10.0 mi North - - N/A   Clear
2:55 PM 84.2 °F 83.5 °F 57.2 °F 40% 30.19 in 10.0 mi North - - N/A   Clear
3:15 PM 82.4 °F 82.5 °F 59.0 °F 45% 30.19 in 10.0 mi North - - N/A   Scattered Clouds
3:35 PM 84.2 °F 83.5 °F 57.2 °F 40% 30.19 in 10.0 mi North - - N/A   Partly Cloudy
3:55 PM 84.2 °F 83.8 °F 59.0 °F 42% 30.18 in 10.0 mi North - - N/A   Clear
4:15 PM 84.2 °F 83.8 °F 59.0 °F 42% 30.18 in 10.0 mi North - - N/A   Clear
4:35 PM 84.2 °F 83.5 °F 57.2 °F 40% 30.18 in 10.0 mi North - - N/A   Partly Cloudy
4:55 PM 84.2 °F 83.8 °F 59.0 °F 42% 30.17 in 10.0 mi North - - N/A   Partly Cloudy
5:15 PM 84.2 °F 83.5 °F 57.2 °F 40% 30.16 in 10.0 mi North - - N/A   Clear
5:35 PM 84.2 °F 83.5 °F 57.2 °F 40% 30.16 in 10.0 mi North - - N/A   Clear
5:55 PM 84.2 °F 83.5 °F 57.2 °F 40% 30.16 in 10.0 mi North - - N/A   Clear
6:15 PM 82.4 °F 82.0 °F 57.2 °F 42% 30.16 in 10.0 mi North - - N/A   Clear
6:35 PM 82.4 °F 82.0 °F 57.2 °F 42% 30.16 in 10.0 mi North - - N/A   Partly Cloudy
6:55 PM 82.4 °F 82.0 °F 57.2 °F 42% 30.16 in 10.0 mi North - - N/A   Clear
7:15 PM 82.4 °F 82.0 °F 57.2 °F 42% 30.16 in 10.0 mi North - - N/A   Clear
7:35 PM 80.6 °F 81.1 °F 59.0 °F 48% 30.17 in 10.0 mi North - - N/A   Clear
7:55 PM 78.8 °F - 59.0 °F 51% 30.17 in 10.0 mi North - - N/A   Clear
8:15 PM 77.0 °F - 59.0 °F 54% 30.17 in 10.0 mi North - - N/A   Clear
8:35 PM 75.2 °F - 60.8 °F 61% 30.17 in 10.0 mi North - - N/A   Clear
8:55 PM 73.4 °F - 60.8 °F 65% 30.17 in 10.0 mi North - - N/A   Clear
9:15 PM 71.6 °F - 62.6 °F 73% 30.18 in 10.0 mi North - - N/A   Clear
9:35 PM 69.8 °F - 62.6 °F 78% 30.18 in 10.0 mi North - - N/A   Clear
9:55 PM 69.8 °F - 62.6 °F 78% 30.19 in 10.0 mi North - - N/A   Clear
10:15 PM 68.0 °F - 62.6 °F 83% 30.19 in 10.0 mi North - - N/A   Clear
10:35 PM 68.0 °F - 62.6 °F 83% 30.20 in 10.0 mi North - - N/A   Clear
10:55 PM 68.0 °F - 62.6 °F 83% 30.20 in 10.0 mi North - - N/A   Clear
11:15 PM 68.0 °F - 62.6 °F 83% 30.21 in 10.0 mi North - - N/A   Clear
11:35 PM 68.0 °F - 62.6 °F 83% 30.21 in 10.0 mi North - - N/A   Clear
11:55 PM 66.2 °F - 62.6 °F 88% 30.21 in 10.0 mi North - - N/A   Clear